Weather in Novoselovka

Russia / Rostov Oblast     47°16′09″N   41°28′52″E
temp.,
°C
wind,
m/s
gust,
m/s
humid.,
%
clouds,
%
prec.,
mm/h
press.,
hPa
HPBL,
m
25 february, thu
thu2500:00−13se358082 0.0 1040248
03:00−14ese237874 0.0 1039147
06:00−14se248461 0.0 1038115
09:00−12sse357879 0.0 1037253
12:00−7s356795 0.0 1035335
15:00−5sw356697 0.0 1033433
18:00−6sw3577100 0.0 103195
21:00−5sw4975100 0.0 1030231
26 february, fri
fri2600:00−3wsw61386100 0.0 1028416
03:00−1wsw81491100 0.0 1026431
06:00+1w71495100 0.7 1025450
09:00+1wsw71496100 0.9 1025408
12:00+2w61199100 0.8 1024364
15:00+3wsw51199100 0.8 1023403
18:00+3wsw51198100 0.0 1022343
21:00+2wsw51298100 0.0 1021336
27 february, sat
sat2700:00+3wsw71497100 0.0 1019435
03:00+3wsw71595100 0.0 1018648
06:00+3wsw51397100 0.1 1016441
09:00+3wsw51297100 0.3 1016400
12:00+4w61297100 0.0 1014383
15:00+5w61191100 0.0 1014660
18:00+3wsw41093100 0.0 1013244
21:00+3wsw4896100 0.6 1013194
28 february, sun
sun2800:00+2wsw3596100 0.0 1012112
03:00+1w3395100 0.0 101375
06:000wnw2394100 0.0 101342
09:00+1n249699 0.0 1013214
12:00+3wnw347987 0.0 1014638
15:00+3wnw358390 0.3 1014590
18:00+1nw3593100 0.3 1016164
21:000n4697100 0.7 1019360
1 march, mon
mon100:00−2nnw338840 0.1 102075
03:00−2nnw358640 0.1 1022185
06:00−3nnw23863 0.0 102384
09:00−1nnw128647 0.1 1026360
12:000nnw3469100 0.1 1027784
15:00+1nnw4569100 0.2 1027878
18:00−1nnw357495 0.1 1029160
21:00−1n357493 0.1 1031338